Vertical_Velocity
0 -0 -1 -0 2 -1 1 1 1 -1 -2 -2 0 0 1 -1 -1 2 -0 -1 1 -2 1 2 8 7 5 0 1 4 0 1 4 3 1 1 -0 -1 -1 -0 1 1 2
-1 -1 -1 -2 1 -2 -1 -0 1 1 0 -0 -1 -0 -0 -1 -0 1 -0 0 -1 -0 -2 0 -1 2 1 3 0 6 1 3 2 9 1 1 1 -1 -1 1 2 0 0
-0 -0 0 -1 -0 -5 3 1 0 0 0 1 0 0 0 0 -1 -0 -1 -0 3 2 -1 -3 1 -2 0 7 11 8 11 15 4 10 3 7 3 3 4 1 2 -1 3
-1 1 -2 -1 2 2 1 0 0 0 0 0 -0 0 -1 -0 1 -1 0 -0 -0 1 1 -2 -2 -2 -4 0 1 11 11 -1 10 6 5 3 0 4 10 4 -0 1 -1
2 -0 1 -1 -2 2 1 1 1 1 1 1 1 -0 -0 -1 0 -1 -1 -1 -1 1 0 0 -1 -4 -1 -2 -2 1 5 3 -1 1 6 0 4 2 0 3 7 3 -2
0 3 2 1 -0 -1 -1 -1 -1 -1 -1 -1 -1 -1 -0 -2 -1 -0 -2 -1 -1 -1 3 1 2 -2 -2 1 0 0 -3 -2 -0 5 -2 -3 -5 -5 -3 -4 -1 -2 1
3 -0 0 -0 1 1 0 2 -0 -1 -1 -1 -0 -1 -2 -1 -0 0 -2 -2 0 1 -0 -0 0 1 -1 2 1 0 -2 -3 -0 -2 -2 2 6 -4 2 1 2 -0 -0
1 3 3 1 -6 -1 -0 0 1 2 2 1 -2 -2 0 -0 2 -2 -1 -1 -1 -1 0 -0 2 1 2 -1 -2 2 1 -3 1 3 4 3 -3 -5 -3 -4 -4 -3 1
1 3 1 2 -1 -1 -1 -1 1 0 0 -0 1 -1 1 1 -1 2 0 1 -1 -2 -1 -3 -0 3 2 -1 -1 -4 -4 -3 -3 4 6 -4 -2 -2 -2 -1 -1 1 -1
1 1 2 2 1 0 -0 -1 1 -0 1 -0 -2 -1 1 -0 -1 -1 -0 -0 -2 -2 -0 -1 -1 3 2 -0 0 -0 -3 -4 -1 1 8 2 -3 -2 -1 -1 2 3 -0
1 3 1 3 3 2 -0 -1 -0 -1 -2 -1 -0 -0 -1 -1 1 1 -1 -3 0 -2 -1 -1 -0 0 5 -1 0 0 1 -7 -6 -0 10 1 -4 -3 2 -1 -2 -1 -1
-0 -2 1 3 3 2 0 -2 -2 -0 -1 -2 -1 -1 -1 -0 -1 2 1 0 0 -2 -0 -1 -2 -0 3 -0 -1 -1 -0 -3 -3 2 4 1 -1 -4 -3 -1 -1 -1 1
1 8 -2 -1 2 3 0 1 -4 0 -0 -0 -1 1 -2 -2 -2 1 1 1 -0 -1 -2 -1 -3 2 -1 1 1 -1 -1 -0 -1 -0 3 2 0 -0 -2 -1 -0 -0 2
1 1 -1 -0 -0 1 1 2 -0 -1 -1 -1 -0 1 -1 -0 -1 -0 -1 4 -0 -1 1 -2 -1 -0 1 -3 1 0 -2 -1 -2 -1 -0 1 -1 -1 -0 -0 0 1 1
3 1 0 -1 -4 -3 -1 -1 0 1 -0 -1 1 -0 0 -0 -2 -2 -2 1 -0 -0 4 -2 -2 -5 1 -4 1 0 -1 -0 -1 1 -0 1 1 0 -0 -1 1 0 -0
2 3 0 -3 -1 0 -0 0 3 -0 0 0 0 -0 1 0 -1 -1 -1 -2 -1 2 -1 1 -2 0 0 -3 0 -2 -1 -1 -1 0 1 1 2 0 1 1 -0 1 -1
2 -2 -3 -1 -1 0 1 -1 -0 -0 -0 -1 -0 0 0 -0 -1 -1 -1 -2 -2 3 -0 1 -1 -1 0 -1 -0 1 -1 1 -1 1 2 1 0 1 1 1 1 1 1
0 -0 -1 0 1 -0 -1 -1 -1 -1 -1 -2 -0 -0 1 1 -1 -1 -0 -2 -2 0 1 3 -0 -1 0 1 -2 -1 -0 1 1 -2 1 0 1 0 -0 0 -1 2 1
-3 -2 -2 -2 -1 -1 -2 -1 -2 -1 -2 -1 -1 -1 -1 -1 -1 1 -1 -2 -1 -1 2 0 1 -1 1 -2 -0 1 -1 -0 0 0 -1 -0 -0 1 -0 -0 -1 -1 -0
2 1 0 0 -1 -1 -0 -0 -1 -1 -1 -1 -1 -1 -2 -1 -1 -0 -1 -0 -0 -2 1 2 0 1 2 -1 1 2 -2 1 -0 2 -0 -0 1 -1 -1 0 0 2 -0
1 0 -0 -1 -1 -1 -1 -1 -1 -1 -2 -2 -1 -2 -1 -2 -1 1 1 1 0 -2 -3 -2 1 -1 -2 0 -1 1 -1 1 -2 1 -1 -1 -3 1 0 1 1 1 1
0 -0 -1 -1 -2 -2 -2 -2 -2 -2 -1 -0 0 -0 -0 -0 1 0 0 1 1 1 1 0 -0 -0 -0 -1 1 -1 -2 -0 -2 0 3 -4 1 1 -4 -2 2 -1 -2
-1 -1 -1 -1 -1 -0 -1 -2 -1 -1 -1 -2 -2 -2 -1 -1 -1 -1 0 -0 -0 0 -0 -0 -0 -0 -2 -3 0 1 -0 -0 -1 -3 -2 10 -10 6 -4 -2 -2 1 -3
0 0 -0 0 -0 -0 -0 -1 -2 -2 -1 -2 -2 -2 -0 -1 -1 0 -0 -0 1 -0 -3 -1 2 -1 1 -2 1 -1 1 -3 2 4 -9 8 -2 0 -6 -3 3 -0 0
2 1 0 -0 -0 -1 -2 -2 -3 -1 -1 -1 0 -1 -0 0 -0 -1 -0 -0 -0 -3 -1 -1 -1 -1 -1 -2 -2 -2 -2 -1 4 1 -5 -8 6 4 -6 1 -3 2 -2
-1 -1 -0 0 -2 -2 -1 -1 -1 -2 -2 -3 -1 -1 -0 -0 1 -0 1 2 2 -4 1 1 2 1 -1 -1 -3 -5 0 -1 -4 5 1 -7 -5 -3 4 0 -1 -2 -1
Height
5825 5828 5830 5831 5834 5836 5838 5841 5843 5846 5848 5850 5851 5854 5856 5858 5860 5862 5865 5867 5869 5870 5872 5874 5875 5876 5877 5878 5878 5878 5879 5879 5880 5882 5883 5884 5885 5886 5887 5888 5890 5891 5892
5821 5824 5825 5828 5830 5832 5835 5838 5840 5842 5845 5847 5850 5852 5853 5856 5857 5859 5862 5863 5866 5868 5869 5871 5872 5874 5875 5874 5875 5874 5874 5876 5876 5877 5878 5879 5881 5881 5882 5884 5885 5885 5886
5816 5820 5822 5824 5827 5829 5831 5834 5836 5839 5842 5844 5846 5848 5850 5852 5854 5857 5858 5861 5862 5863 5865 5868 5869 5871 5872 5873 5873 5872 5871 5870 5872 5874 5875 5875 5876 5877 5878 5879 5880 5881 5881
5810 5815 5818 5820 5822 5824 5827 5830 5832 5834 5837 5839 5841 5843 5845 5848 5850 5852 5855 5857 5858 5861 5862 5864 5866 5868 5868 5871 5869 5867 5867 5869 5868 5868 5869 5871 5872 5873 5874 5875 5875 5876 5877
5804 5807 5812 5815 5818 5820 5822 5824 5826 5828 5831 5834 5836 5838 5841 5843 5845 5847 5850 5852 5853 5856 5857 5858 5861 5863 5863 5865 5866 5865 5866 5866 5864 5865 5866 5866 5867 5867 5870 5871 5872 5872 5873
5798 5801 5804 5807 5810 5812 5815 5818 5821 5823 5825 5828 5830 5833 5836 5837 5840 5842 5843 5846 5848 5851 5853 5853 5857 5857 5858 5859 5860 5861 5861 5863 5860 5859 5860 5860 5861 5863 5864 5866 5866 5867 5868
5791 5794 5797 5799 5801 5804 5807 5810 5813 5816 5819 5821 5824 5826 5829 5831 5834 5837 5838 5839 5841 5843 5846 5848 5850 5852 5852 5853 5854 5854 5855 5855 5856 5855 5856 5854 5855 5858 5860 5860 5862 5862 5861
5782 5785 5789 5792 5792 5796 5800 5802 5805 5808 5811 5814 5816 5818 5821 5824 5826 5829 5831 5832 5834 5836 5838 5840 5842 5845 5845 5844 5845 5846 5847 5847 5849 5850 5850 5850 5850 5851 5852 5855 5855 5856 5856
5771 5776 5780 5784 5782 5786 5791 5794 5797 5800 5802 5805 5808 5810 5813 5815 5817 5820 5822 5824 5825 5826 5828 5831 5834 5836 5837 5837 5838 5837 5838 5839 5840 5843 5845 5842 5843 5843 5844 5846 5848 5848 5848
5759 5765 5770 5774 5776 5777 5780 5784 5788 5791 5794 5796 5798 5801 5804 5806 5808 5811 5813 5813 5814 5816 5818 5820 5822 5825 5826 5827 5828 5829 5828 5828 5830 5832 5837 5836 5834 5835 5836 5835 5838 5839 5841
5749 5753 5759 5763 5767 5769 5771 5774 5777 5780 5783 5786 5789 5791 5793 5796 5798 5801 5802 5803 5805 5806 5808 5809 5811 5813 5815 5816 5817 5818 5819 5818 5819 5820 5822 5825 5826 5824 5826 5827 5827 5829 5830
5738 5742 5748 5753 5757 5761 5762 5763 5766 5768 5771 5774 5777 5779 5782 5785 5786 5790 5792 5793 5795 5796 5798 5798 5799 5801 5802 5804 5805 5806 5807 5808 5809 5809 5809 5810 5812 5814 5814 5816 5817 5817 5818
5730 5732 5736 5742 5746 5750 5752 5754 5753 5755 5759 5762 5765 5768 5770 5772 5774 5777 5780 5782 5782 5784 5786 5787 5788 5789 5789 5790 5792 5793 5794 5796 5797 5797 5797 5798 5798 5800 5802 5802 5804 5805 5805
5718 5723 5725 5729 5734 5738 5741 5742 5742 5743 5747 5750 5753 5755 5757 5759 5761 5763 5766 5769 5771 5772 5773 5774 5775 5776 5777 5778 5779 5779 5780 5781 5782 5783 5783 5784 5785 5786 5787 5789 5789 5790 5792
5708 5710 5714 5717 5720 5723 5727 5730 5733 5735 5736 5737 5740 5742 5744 5745 5748 5750 5752 5755 5757 5759 5760 5761 5761 5762 5763 5764 5765 5765 5766 5767 5767 5768 5768 5769 5770 5772 5773 5774 5774 5775 5776
5696 5699 5700 5702 5705 5709 5714 5717 5719 5721 5724 5725 5726 5728 5730 5732 5734 5736 5738 5740 5742 5745 5747 5747 5748 5749 5749 5750 5751 5751 5752 5752 5753 5753 5753 5753 5754 5755 5756 5757 5758 5759 5759
5681 5684 5686 5689 5693 5695 5698 5701 5704 5706 5708 5710 5712 5713 5715 5717 5719 5720 5722 5724 5726 5728 5730 5731 5732 5732 5733 5734 5735 5735 5736 5737 5737 5737 5738 5738 5738 5738 5739 5740 5741 5741 5742
5669 5673 5675 5678 5681 5683 5684 5686 5688 5690 5693 5695 5697 5698 5700 5702 5703 5705 5706 5707 5709 5711 5712 5713 5714 5715 5716 5717 5717 5718 5719 5719 5720 5720 5720 5720 5720 5721 5721 5722 5723 5723 5724
5657 5660 5663 5664 5666 5668 5670 5672 5674 5676 5678 5679 5681 5683 5684 5686 5687 5689 5690 5691 5692 5694 5695 5696 5697 5698 5699 5699 5700 5700 5701 5701 5702 5702 5702 5702 5702 5703 5703 5704 5705 5705 5706
5645 5648 5650 5653 5654 5656 5658 5660 5662 5663 5665 5667 5668 5669 5670 5672 5673 5674 5675 5675 5676 5678 5679 5680 5681 5681 5682 5682 5683 5683 5683 5683 5684 5684 5684 5684 5685 5684 5685 5685 5686 5686 5687
5633 5636 5639 5641 5643 5644 5646 5648 5649 5651 5652 5653 5654 5655 5657 5658 5659 5659 5659 5660 5661 5662 5663 5664 5664 5665 5665 5665 5665 5665 5665 5666 5665 5666 5665 5665 5666 5664 5665 5665 5665 5666 5666
5622 5625 5627 5629 5631 5632 5634 5635 5637 5638 5639 5640 5641 5642 5643 5643 5644 5644 5644 5645 5646 5646 5646 5647 5647 5647 5647 5647 5648 5647 5646 5647 5647 5646 5645 5644 5646 5644 5643 5644 5645 5644 5645
5611 5613 5615 5617 5619 5621 5622 5623 5624 5625 5626 5627 5628 5628 5629 5629 5629 5629 5629 5629 5629 5629 5629 5629 5629 5629 5628 5628 5628 5627 5627 5627 5626 5624 5626 5626 5622 5622 5621 5623 5623 5622 5620
5600 5602 5604 5606 5608 5609 5611 5612 5613 5614 5614 5614 5614 5614 5614 5614 5614 5613 5613 5612 5612 5611 5611 5611 5610 5610 5610 5609 5609 5609 5608 5607 5607 5604 5603 5607 5601 5600 5600 5601 5600 5599 5598
5590 5592 5593 5595 5596 5597 5599 5599 5600 5600 5600 5600 5600 5600 5599 5599 5599 5599 5598 5597 5595 5595 5595 5594 5593 5592 5591 5589 5587 5588 5586 5587 5586 5583 5579 5580 5580 5579 5578 5578 5576 5575 5574
5579 5581 5582 5584 5585 5585 5586 5586 5586 5586 5586 5585 5585 5584 5584 5583 5581 5581 5580 5579 5577 5576 5576 5575 5574 5572 5571 5569 5567 5567 5565 5564 5563 5563 5557 5557 5556 5555 5556 5555 5552 5550 5550